Location: Gull Harbor
(47.1000°N, 122.9000°W)
Time: 22:27:19
(UTC-07:00)

BlueWalker 3 - Pass Details

Date: 05 February 2023
Orbit: 497 x 515 km, 53.2° (Epoch: 23 March)

Event Time Altitude Azimuth Distance (km) Brightness Sun altitude
Rises 19:24:55 0° 297° (WNW) 2,606 6.6 -21.5°
Reaches altitude 10° 19:27:10 10° 303° (WNW) 1,724 5.4 -21.9°
Enters shadow 19:30:31 46° 356° (N) 689 2.5 -22.4°
